AirNav   Pilot Hours Calculator
 
 1485 users online  

CO80 Fowler Airport
Fowler, Colorado, USA

GOING TO FOWLER?


FAA INFORMATION EFFECTIVE 19 MAY 2022

Location

FAA Identifier: CO80
Lat/Long: 38-04-21.0220N 104-02-44.8610W
38-04.350367N 104-02.747683W
38.0725061,-104.0457947
(estimated)
Elevation: 4428 ft. / 1350 m (estimated)
Variation: 11E (1985)
From city: 3 miles S of FOWLER, CO
Time zone: UTC -6 (UTC -7 during Standard Time)
Zip code: 81039

Airport Operations

Airport use: Private use. Permission required prior to landing
Activation date: 05/1962
Control tower: no
ARTCC: DENVER CENTER
FSS: DENVER FLIGHT SERVICE STATION
Attendance: UNATNDD
Wind indicator: yes
Segmented circle: no

Nearby radio navigation aids

VOR radial/distance  VOR name  Freq  Var
PUBr118/22.5PUEBLO VORTAC116.7008E

Airport Services

Parking: tiedowns
Airframe service: NONE
Powerplant service: NONE
Bottled oxygen: NONE
Bulk oxygen: NONE

Runway Information

Runway 4/22

Dimensions: 3240 x 40 ft. / 988 x 12 m
Surface: asphalt
RUNWAY 4  RUNWAY 22
Traffic pattern: leftleft
Obstructions: 4 ft. fence, marked, 17 ft. from runway, 4:1 slope to clear15 ft. road, 120 ft. from runway, 8:1 slope to clear

Runway 12/30

Dimensions: 2850 x 50 ft. / 869 x 15 m
Surface: dirt, in poor condition
RUNWAY 12  RUNWAY 30
Traffic pattern: leftleft
Obstructions: none6 ft. fence

Airport Ownership and Management from official FAA records

Ownership: Privately-owned
Owner: FOWLER AIRFIELD ASSOC.
30491 CR2
FOWLER, CO 81039
Phone 719-263-5300
Manager: SAM ROGGE
PO BOX 401
FOWLER, CO 81039
Phone (719) 469-5300
ADDITIONAL CONTACT: GARY ROGGE, 719-251-4269.

Airport Operational Statistics

Aircraft based on the field: 20
Single engine airplanes: 20
    
Aircraft operations: avg 117/day *
93% military
7% local general aviation
<1% transient general aviation
* for 12-month period ending 18 February 1991

Additional Remarks

FOR CD CTC DENVER ARTCC AT 303-651-4257.
USE CAUTION: INTENSIVE USAF FLIGHT TRNG - USES NON-STANDARD PATTERNS.
NUMEROUS WILDLIFE (ANTELOPE / COYOTES) OCCASIONALLY ON THE AFLD.
INTENSIVE AGRICULTURAL FLIGHT OPS, MAR THROUGH OCT.

Instrument Procedures

There are no published instrument procedures at CO80.

Some nearby airports with instrument procedures:

KPUB - Pueblo Memorial Airport (25 nm NW)
KLHX - La Junta Municipal Airport (25 nm E)
4V1 - Spanish Peaks Airfield (42 nm SW)
KTAD - Perry Stokes Airport (51 nm S)
KCOS - City of Colorado Springs Municipal Airport (54 nm NW)
 
Loc | Ops | Rwys | IFR | FBO | Links
Com | Nav | Svcs | Stats | Notes

AirBoss

 
Area around CO80 (Fowler Airport)
 
Road maps at: MapQuest Bing Google
 
Aerial photo
WARNING: Photo may not be current or correct
Aerial photo of CO80 (Fowler Airport)
Photo taken 18-Nov-2007
looking north

Do you have a better or more recent aerial photo of Fowler Airport that you would like to share? If so, please send us your photo.

 
Sectional chart

 
Airport distance calculator
Flying to Fowler Airport? Find the distance to fly.

From to CO80

Sunrise and sunset
Times for 25-May-2022
 Local
(UTC-6)
 Zulu
(UTC)
Morning civil twilight05:0911:09
Sunrise05:3911:39
Sunset20:0702:07
Evening civil twilight20:3702:37

Current date and time
Zulu (UTC)  25-May-2022 16:58:53
Local (UTC-6)  25-May-2022 10:58:53
 
METAR
KPUB 
25nm NW 
251653Z 33012G22KT 10SM FEW060 17/02 A3004 RMK AO2 SLP141 T01720022
KLHX 
25nm E 
251653Z AUTO 01017G25KT 10SM FEW047 16/04 A3002 RMK AO2 PK WND 36026/1636 SLP142 T01610044
KABH 
43nm N 
251558Z AUTO 36022G25KT 10SM CLR 12/01 A3008 RMK AO2 PK WND 35027/38 SLP168 T01240008
KFCS 
49nm NW 
251558Z AUTO 02014KT 10SM CLR 13/00 A3005 RMK AO2 SLP172 T01330000 $
TAF
KPUB 
25nm NW 
251127Z 2512/2612 30007KT P6SM FEW100 FM251700 35015G25KT P6SM SCT100 FM260200 04008KT P6SM SCT100
NOTAMs
Click for the latest NOTAMs
NOTAMs are issued by the DoD/FAA and will open in a separate window not controlled by AirNav.

 

 
 

Would you like to see your business listed on this page?

 If your business provides an interesting product or service to pilots, flight crews, aircraft, or users of the Fowler Airport, you should consider listing it here.  To start the listing process, click on the button below
 
Add a business
 

Other Pages about Fowler Airport

www.fowlerairport.com
 
Update a link
 
Copyright © AirNav, LLC. All rights reserved. Privacy Policy  Contact